This is the latest recevied weather packets stored in our database for station/object KD4IZ-13. If no packets are shown the sender has not sent any weather packets the latest 10 day(s).
| Time | Temp. | Humidity | Pressure | Rain* | Wind** | Luminosity | Snow |
|---|---|---|---|---|---|---|---|
| 1778161588 | 12.22° C | 58% | 1014.6 hPa | 0 mm | - | 376 W/m² | - |
| 1778161284 | 12.78° C | 61% | 1014.7 hPa | 0 mm | - | 402 W/m² | - |
| 1778160980 | 12.78° C | 60% | 1014.4 hPa | 0 mm | - | 432 W/m² | - |
| 1778160678 | 12.22° C | 60% | 1014.6 hPa | 0 mm | - | 452 W/m² | - |
| 1778160375 | 12.22° C | 60% | 1014.6 hPa | 0 mm | - | 626 W/m² | - |
| 1778160071 | 11.67° C | 63% | 1014.4 hPa | 0 mm | - | 586 W/m² | - |
| 1778159768 | 12.22° C | 64% | 1014.5 hPa | 0 mm | - | 599 W/m² | - |
| 1778159466 | 11.67° C | 67% | 1014.6 hPa | 0 mm | - | 468 W/m² | - |
| 1778159162 | 11.11° C | 65% | 1014.5 hPa | 0 mm | - | 264 W/m² | - |
| 1778158860 | 11.11° C | 66% | 1014.4 hPa | 0 mm | - | 246 W/m² | - |
| 1778158558 | 10.56° C | 67% | 1014.5 hPa | 0 mm | - | 193 W/m² | - |
| 1778158255 | 10.56° C | 69% | 1014.3 hPa | 0 mm | - | 156 W/m² | - |
| 1778157952 | 10.56° C | 68% | 1014.3 hPa | 0 mm | - | 131 W/m² | - |
| 1778157650 | 10.56° C | 67% | 1014.3 hPa | 0 mm | - | 123 W/m² | - |
| 1778157347 | 10.56° C | 71% | 1014.2 hPa | 0 mm | - | 119 W/m² | - |
| 1778157044 | 10.56° C | 71% | 1014.3 hPa | 0 mm | - | 112 W/m² | - |
| 1778156739 | 10.56° C | 71% | 1014.2 hPa | 0 mm | - | 111 W/m² | - |
| 1778156435 | 10.56° C | 72% | 1014.4 hPa | 0 mm | - | 106 W/m² | - |
| 1778156131 | 10.56° C | 74% | 1014.2 hPa | 0 mm | - | 104 W/m² | - |
| 1778155827 | 10.56° C | 74% | 1014.3 hPa | 0 mm | - | 96 W/m² | - |
| 1778155523 | 10.56° C | 74% | 1014 hPa | 0 mm | - | 98 W/m² | - |
| 1778155221 | 10° C | 76% | 1014.1 hPa | 0 mm | - | 86 W/m² | - |
| 1778154917 | 10° C | 77% | 1014.3 hPa | 0 mm | - | 67 W/m² | - |
| 1778154613 | 10° C | 78% | 1014.3 hPa | 0 mm | - | 65 W/m² | - |
| 1778154309 | 10° C | 78% | 1014.3 hPa | 0 mm | - | 65 W/m² | - |
* Rain latest hour (hover to see other rain measurements)
** Current wind speed in m/s (hover to see current wind gust speed)